EST,Max TemperatureF,Mean TemperatureF,Min TemperatureF,Max Dew PointF,MeanDew PointF,Min DewpointF,Max Humidity, Mean Humidity, Min Humidity, Max Sea Level PressureIn, Mean Sea Level PressureIn, Min Sea Level PressureIn, Max VisibilityMiles, Mean VisibilityMiles, Min VisibilityMiles, Max Wind SpeedMPH, Mean Wind SpeedMPH, Max Gust SpeedMPH,PrecipitationIn, CloudCover, Events, WindDirDegrees
2013-2-1,13,9,5,10,3,-1,84,76,61,30.27,30.19,29.96,10,7,1,16,11,25,0.00,5,Snow,240
2013-2-2,24,15,7,19,12,3,88,80,64,30.20,30.03,29.94,10,6,2,14,7,17,0.00,8,Snow,245
2013-2-3,21,14,8,16,12,5,87,80,74,30.01,29.95,29.89,10,6,1,18,4,24,0.00,8,Snow,254
2013-2-4,24,20,18,20,18,14,91,86,79,30.01,29.91,29.84,10,5,1,7,4,,0.00,8,Snow,132
2013-2-5,29,18,6,26,17,3,93,87,74,29.97,29.88,29.79,10,5,0,15,4,18,0.00,6,Fog-Snow,235
2013-2-6,30,24,17,24,18,15,93,74,58,30.25,30.18,30.00,10,9,3,10,5,,0.00,4,Snow,167
2013-2-7,39,32,24,31,24,18,95,75,62,30.18,30.02,29.81,10,7,1,10,5,,0.00,6,Rain-Snow,105
2013-2-8,32,26,19,31,23,15,96,82,69,30.35,30.10,29.80,10,8,2,14,6,25,0.00,6,Snow,338
2013-2-9,32,20,8,21,15,6,94,79,60,30.42,30.33,30.18,10,8,0,10,3,,0.00,0,Fog,160
2013-2-10,43,35,27,42,28,19,93,76,66,30.18,29.92,29.60,10,9,4,15,7,22,0.00,6,Rain,147
2013-2-11,46,38,30,42,27,22,93,71,61,29.94,29.71,29.55,10,10,5,24,15,36,0.00,8,Snow,247
2013-2-12,31,30,28,22,22,21,77,74,68,30.07,30.00,29.93,10,10,10,20,11,25,0.00,8,,275
2013-2-13,43,32,21,27,24,19,89,74,54,29.93,29.80,29.71,10,9,4,12,5,,0.00,2,,218
2013-2-14,39,34,30,32,29,24,92,80,67,29.91,29.76,29.67,10,8,5,23,9,36,0.00,7,,230
2013-2-15,32,26,21,26,19,13,86,72,52,30.14,30.06,29.91,10,9,2,17,9,23,0.00,7,Snow,315
2013-2-16,23,17,10,20,13,6,93,80,55,30.10,30.06,30.04,10,6,0,21,5,28,0.00,6,Snow,290
2013-2-17,26,14,2,13,9,-1,90,73,52,30.21,30.15,30.09,10,10,0,7,1,,0.00,4,Fog-Snow,172
2013-2-18,49,36,22,40,25,12,90,65,54,30.13,29.83,29.49,10,10,3,22,11,29,0.00,3,Rain,170
2013-2-19,43,29,15,40,18,11,90,82,74,30.02,29.74,29.43,10,4,1,26,18,40,0.00,8,Rain-Snow,256
2013-2-20,23,19,16,16,14,12,84,77,70,30.29,30.18,30.02,10,6,2,18,13,28,0.00,8,Snow,298
2013-2-21,26,23,20,19,16,14,78,75,71,30.36,30.28,30.13,10,10,10,18,7,23,0.00,8,Snow,52
2013-2-22,33,26,21,32,23,15,94,85,71,30.12,29.93,29.84,10,6,1,20,13,26,0.00,8,Snow,149
2013-2-23,29,28,25,22,20,17,86,75,63,29.94,29.91,29.88,10,9,1,13,8,17,0.00,8,Snow,240
2013-2-24,35,28,21,25,22,19,91,77,64,30.15,30.04,29.92,10,9,4,17,6,16,0.00,5,Snow,257
2013-2-25,39,28,18,26,22,15,93,77,55,30.21,30.14,30.04,10,8,4,9,1,,0.00,0,,89
2013-2-26,33,31,29,32,26,21,100,82,65,30.04,29.70,29.46,10,6,1,21,10,29,0.00,5,Rain-Snow,71
2013-2-27,34,33,32,33,32,31,98,96,90,29.59,29.51,29.44,5,2,0,7,1,,0.00,8,Snow,240
2013-2-28,36,34,31,32,30,27,96,86,73,29.96,29.78,29.58,10,9,2,12,7,18,0.00,8,Snow,332